Location: Unspecified
(58.9933°N, 5.6375°E)
Time: 19:36:08
(UTC+01:00)

Cosmos 2058 - Pass Details

Date: 22 January 2018
Orbit: 563 x 585 km, 82.5° (Epoch: 23 February)

Event Time Altitude Azimuth Distance (km) Brightness Sun altitude
Rises 18:10:57 0° 144° (SE) 2,797 6.2 -11.9°
Reaches altitude 10° 18:13:41 10° 126° (SE) 1,906 5.2 -12.3°
Enters shadow 18:16:02 18° 92° (E) 1,483 4.4 -12.5°
